When you browse on this site, cookies collect data to enhance your experience and personalize the content and advertising you see.
Visit our Privacy Policy to learn more. By continuing to use the site, you agree to this use of cookies and data.
  • en France
  • Liste des pays
  • À 7 jours
  • Température de l'eau
  • Carte satellitaire
  • Carte météo
  • Widgets météo
  • user-avatar
    Se connecter

    Météo par heure à Puntarenas

    Ce jour, 18 Novembre, Dimanche

    Heure Température Précipitation Vent Pression Humidité
    00:00 +27°C° 0 mm 2 m/s 757 mmHg 84%
    01:00 +27°C° 0 mm 2 m/s 757 mmHg 84%
    02:00 +27°C° 0 mm 2 m/s 757 mmHg 83%
    03:00 +27°C° 0 mm 2 m/s 757 mmHg 83%
    04:00 +27°C° 0 mm 2 m/s 757 mmHg 83%
    05:00 +27°C° 0 mm 2 m/s 757 mmHg 83%
    06:00 +27°C° 0 mm 2 m/s 757 mmHg 83%
    07:00 +29°C° 0 mm 2 m/s 758 mmHg 77%
    08:00 +30°C° 0 mm 2 m/s 758 mmHg 72%
    09:00 +33°C° 0 mm 3 m/s 759 mmHg 67%
    10:00 +34°C° 0 mm 2 m/s 758 mmHg 63%
    11:00 +35°C° 0 mm 2 m/s 758 mmHg 60%
    12:00 +36°C° 0 mm 2 m/s 757 mmHg 57%
    13:00 +35°C° 0 mm 2 m/s 757 mmHg 59%
    14:00 +35°C° 0 mm 2 m/s 756 mmHg 62%
    15:00 +34°C° 0 mm 2 m/s 755 mmHg 64%
    16:00 +32°C° 0 mm 2 m/s 756 mmHg 71%
    17:00 +30°C° 0 mm 2 m/s 756 mmHg 77%
    18:00 +29°C° 0 mm 1 m/s 756 mmHg 84%
    19:00 +28°C° 0 mm 1 m/s 757 mmHg 84%
    20:00 +28°C° 0 mm 1 m/s 758 mmHg 85%
    21:00 +28°C° 0 mm 2 m/s 758 mmHg 85%
    22:00 +28°C° 0 mm 1 m/s 758 mmHg 85%
    23:00 +28°C° 0 mm 1 m/s 758 mmHg 84%

    Demain, 19 Novembre, Lundi

    Heure Température Précipitation Vent Pression Humidité
    00:00 +27°C° 0 mm 1 m/s 758 mmHg 84%
    01:00 +27°C° 0 mm 2 m/s 757 mmHg 83%
    02:00 +27°C° 0 mm 2 m/s 757 mmHg 83%
    03:00 +27°C° 0 mm 2 m/s 757 mmHg 83%
    04:00 +27°C° 0 mm 2 m/s 757 mmHg 83%
    05:00 +27°C° 0 mm 2 m/s 757 mmHg 82%
    06:00 +27°C° 0 mm 2 m/s 757 mmHg 82%
    07:00 +29°C° 0 mm 2 m/s 758 mmHg 77%
    08:00 +30°C° 0 mm 2 m/s 758 mmHg 71%
    09:00 +32°C° 0 mm 2 m/s 758 mmHg 66%
    10:00 +32°C° 0 mm 2 m/s 758 mmHg 65%
    11:00 +34°C° 0 mm 2 m/s 757 mmHg 63%
    12:00 +35°C° 0 mm 3 m/s 757 mmHg 61%
    13:00 +34°C° 0.2 mm 2 m/s 756 mmHg 65%
    14:00 +34°C° 0.2 mm 2 m/s 756 mmHg 68%
    15:00 +32°C° 0.2 mm 2 m/s 755 mmHg 71%
    16:00 +31°C° 0.4 mm 2 m/s 756 mmHg 76%
    17:00 +30°C° 0.4 mm 2 m/s 756 mmHg 81%
    18:00 +28°C° 0.4 mm 1 m/s 756 mmHg 87%
    19:00 +28°C° 0.1 mm 1 m/s 757 mmHg 86%
    20:00 +28°C° 0.1 mm 1 m/s 758 mmHg 86%
    21:00 +28°C° 0.1 mm 1 m/s 758 mmHg 86%
    22:00 +28°C° 0 mm 1 m/s 758 mmHg 85%
    23:00 +27°C° 0 mm 1 m/s 758 mmHg 85%

    Après-demain, 20 Novembre, Mardi

    Heure Température Précipitation Vent Pression Humidité
    00:00 +27°C° 0 mm 1 m/s 758 mmHg 85%
    01:00 +27°C° 0 mm 1 m/s 757 mmHg 85%
    02:00 +27°C° 0 mm 1 m/s 757 mmHg 85%
    03:00 +27°C° 0 mm 1 m/s 756 mmHg 85%
    04:00 +27°C° 0 mm 1 m/s 757 mmHg 85%
    05:00 +27°C° 0 mm 1 m/s 757 mmHg 85%
    06:00 +27°C° 0 mm 1 m/s 757 mmHg 85%
    07:00 +28°C° 0 mm 1 m/s 758 mmHg 80%
    08:00 +30°C° 0 mm 1 m/s 759 mmHg 76%
    09:00 +31°C° 0 mm 1 m/s 759 mmHg 71%
    10:00 +32°C° 0 mm 2 m/s 759 mmHg 69%
    11:00 +32°C° 0 mm 2 m/s 758 mmHg 66%
    12:00 +34°C° 0 mm 2 m/s 757 mmHg 64%
    13:00 +32°C° 0.1 mm 2 m/s 757 mmHg 67%
    14:00 +32°C° 0.1 mm 2 m/s 756 mmHg 71%
    15:00 +31°C° 0.1 mm 2 m/s 756 mmHg 74%
    16:00 +30°C° 0.2 mm 2 m/s 756 mmHg 79%
    17:00 +29°C° 0.2 mm 2 m/s 757 mmHg 83%
    18:00 +28°C° 0.2 mm 2 m/s 757 mmHg 87%
    19:00 +28°C° 0 mm 2 m/s 758 mmHg 86%
    20:00 +28°C° 0 mm 2 m/s 758 mmHg 86%
    21:00 +28°C° 0 mm 2 m/s 759 mmHg 85%
    22:00 +27°C° 0.1 mm 2 m/s 759 mmHg 86%
    23:00 +27°C° 0.1 mm 2 m/s 758 mmHg 86%

    21 Novembre, Mercredi

    Heure Température Précipitation Vent Pression Humidité
    00:00 +27°C° 0.1 mm 2 m/s 758 mmHg 87%
    01:00 +27°C° 0.3 mm 1 m/s 758 mmHg 87%
    02:00 +27°C° 0.3 mm 1 m/s 758 mmHg 87%
    03:00 +27°C° 0.3 mm 1 m/s 757 mmHg 88%
    04:00 +27°C° 0.2 mm 1 m/s 758 mmHg 87%
    05:00 +27°C° 0.2 mm 1 m/s 758 mmHg 87%
    06:00 +27°C° 0.2 mm 2 m/s 758 mmHg 87%
    07:00 +28°C° 0 mm 2 m/s 759 mmHg 83%
    08:00 +29°C° 0 mm 2 m/s 759 mmHg 80%
    09:00 +30°C° 0 mm 2 m/s 759 mmHg 76%
    10:00 +31°C° 0.1 mm 2 m/s 759 mmHg 74%
    11:00 +31°C° 0.1 mm 2 m/s 758 mmHg 73%
    12:00 +32°C° 0.1 mm 2 m/s 758 mmHg 71%
    13:00 +31°C° 0.4 mm 2 m/s 757 mmHg 75%
    14:00 +30°C° 0.4 mm 2 m/s 757 mmHg 79%
    15:00 +30°C° 0.4 mm 2 m/s 756 mmHg 83%
    16:00 +29°C° 0.6 mm 2 m/s 757 mmHg 86%
    17:00 +28°C° 0.6 mm 2 m/s 757 mmHg 88%
    18:00 +28°C° 0.6 mm 1 m/s 757 mmHg 90%
    19:00 +28°C° 0.1 mm 1 m/s 758 mmHg 90%
    20:00 +27°C° 0.1 mm 1 m/s 759 mmHg 90%
    21:00 +27°C° 0.1 mm 1 m/s 759 mmHg 90%
    22:00 +27°C° 0.2 mm 1 m/s 759 mmHg 90%
    23:00 +27°C° 0.2 mm 1 m/s 759 mmHg 90%

    22 Novembre, Jeudi

    Heure Température Précipitation Vent Pression Humidité
    00:00 +27°C° 0.2 mm 1 m/s 758 mmHg 90%
    01:00 +27°C° 0.1 mm 1 m/s 758 mmHg 90%
    02:00 +27°C° 0.1 mm 1 m/s 758 mmHg 90%
    03:00 +27°C° 0.1 mm 1 m/s 757 mmHg 90%
    04:00 +27°C° 0 mm 1 m/s 757 mmHg 90%
    05:00 +27°C° 0 mm 1 m/s 758 mmHg 90%
    06:00 +27°C° 0 mm 1 m/s 758 mmHg 91%
    07:00 +28°C° 0.1 mm 1 m/s 758 mmHg 84%
    08:00 +30°C° 0.1 mm 2 m/s 759 mmHg 78%
    09:00 +31°C° 0.1 mm 2 m/s 759 mmHg 72%
    10:00 +32°C° 0.3 mm 2 m/s 758 mmHg 70%
    11:00 +34°C° 0.3 mm 2 m/s 758 mmHg 68%
    12:00 +34°C° 0.3 mm 2 m/s 757 mmHg 65%
    13:00 +34°C° 0.9 mm 2 m/s 757 mmHg 69%
    14:00 +32°C° 0.9 mm 2 m/s 756 mmHg 74%
    15:00 +31°C° 0.9 mm 2 m/s 755 mmHg 78%
    16:00 +30°C° 1.1 mm 2 m/s 756 mmHg 82%
    17:00 +29°C° 1.1 mm 2 m/s 756 mmHg 86%
    18:00 +28°C° 1.1 mm 1 m/s 757 mmHg 90%
    19:00 +28°C° 0.3 mm 1 m/s 757 mmHg 89%
    20:00 +27°C° 0.3 mm 1 m/s 758 mmHg 89%
    21:00 +27°C° 0.3 mm 1 m/s 758 mmHg 89%
    22:00 +27°C° 0 mm 1 m/s 758 mmHg 88%
    23:00 +27°C° 0 mm 1 m/s 757 mmHg 88%

    23 Novembre, Vendredi

    Heure Température Précipitation Vent Pression Humidité
    00:00 +27°C° 0 mm 1 m/s 757 mmHg 88%
    01:00 +27°C° 0 mm 1 m/s 757 mmHg 88%
    02:00 +26°C° 0 mm 1 m/s 756 mmHg 88%
    03:00 +26°C° 0 mm 1 m/s 756 mmHg 88%
    04:00 +26°C° 0 mm 1 m/s 756 mmHg 87%
    05:00 +26°C° 0 mm 1 m/s 757 mmHg 87%
    06:00 +26°C° 0 mm 1 m/s 757 mmHg 87%
    07:00 +28°C° 0 mm 1 m/s 757 mmHg 81%
    08:00 +30°C° 0 mm 1 m/s 758 mmHg 75%
    09:00 +31°C° 0 mm 1 m/s 758 mmHg 69%
    10:00 +32°C° 0 mm 1 m/s 758 mmHg 67%
    11:00 +33°C° 0 mm 1 m/s 757 mmHg 65%
    12:00 +34°C° 0 mm 1 m/s 756 mmHg 63%
    13:00 +33°C° 0.2 mm 1 m/s 756 mmHg 67%
    14:00 +32°C° 0.2 mm 2 m/s 755 mmHg 72%
    15:00 +31°C° 0.2 mm 2 m/s 755 mmHg 77%
    16:00 +30°C° 0.5 mm 1 m/s 755 mmHg 81%
    17:00 +29°C° 0.5 mm 1 m/s 756 mmHg 85%
    18:00 +28°C° 0.5 mm 1 m/s 756 mmHg 90%
    19:00 +28°C° 0.2 mm 1 m/s 757 mmHg 90%
    20:00 +27°C° 0.2 mm 1 m/s 757 mmHg 89%
    21:00 +27°C° 0.2 mm 1 m/s 758 mmHg 89%
    22:00 +27°C° 0.1 mm 1 m/s 758 mmHg 89%
    23:00 +27°C° 0.1 mm 1 m/s 757 mmHg 89%
    Voir plus